TimeEDT,TemperatureF,Dew PointF,Humidity,Sea Level PressureIn,VisibilityMPH,Wind Direction,Wind SpeedMPH,Gust SpeedMPH,PrecipitationIn,Events,Conditions,WindDirDegrees,DateUTC
12:15 AM,64.4,62.6,94,29.78,10.0,Calm,Calm,-,N/A,,Scattered Clouds,0,2013-08-31 04:15:00
12:35 AM,66.2,62.6,88,29.78,10.0,Calm,Calm,-,N/A,,Overcast,0,2013-08-31 04:35:00
12:55 AM,66.2,64.4,94,29.78,10.0,Calm,Calm,-,N/A,,Overcast,0,2013-08-31 04:55:00
1:15 AM,-9999,-9999,N/A,29.79,10.0,North,10.4,18.4,N/A,Thunderstorm,Mostly Cloudy,360,2013-08-31 05:15:00
1:35 AM,66.2,62.6,88,29.79,10.0,NNE,6.9,-,N/A,,Overcast,20,2013-08-31 05:35:00
1:55 AM,66.2,62.6,88,29.79,10.0,NNE,4.6,-,N/A,,Partly Cloudy,20,2013-08-31 05:55:00
2:15 AM,66.2,62.6,88,29.78,10.0,NNE,3.5,-,N/A,,Clear,20,2013-08-31 06:15:00
2:35 AM,66.2,62.6,88,29.79,10.0,Calm,Calm,-,N/A,,Clear,0,2013-08-31 06:35:00
2:55 AM,66.2,62.6,88,29.79,10.0,Calm,Calm,-,N/A,,Clear,0,2013-08-31 06:55:00
3:15 AM,66.2,62.6,88,29.79,10.0,Calm,Calm,-,N/A,,Clear,0,2013-08-31 07:15:00
3:35 AM,64.4,62.6,94,29.79,10.0,Calm,Calm,-,N/A,,Clear,0,2013-08-31 07:35:00
3:55 AM,64.4,62.6,94,29.80,10.0,Calm,Calm,-,N/A,,Clear,0,2013-08-31 07:55:00
4:15 AM,64.4,62.6,94,29.80,10.0,SSE,3.5,-,N/A,,Clear,160,2013-08-31 08:15:00
4:55 AM,64.4,62.6,94,29.79,10.0,SSE,6.9,-,N/A,,Overcast,160,2013-08-31 08:55:00
5:15 AM,64.4,62.6,94,29.80,10.0,Calm,Calm,-,N/A,,Overcast,0,2013-08-31 09:15:00
5:35 AM,64.4,62.6,94,29.81,10.0,Calm,Calm,-,N/A,,Overcast,0,2013-08-31 09:35:00
5:55 AM,64.4,62.6,94,29.81,10.0,Calm,Calm,-,N/A,,Overcast,0,2013-08-31 09:55:00
6:15 AM,64.4,62.6,94,29.81,10.0,Calm,Calm,-,N/A,,Mostly Cloudy,0,2013-08-31 10:15:00
6:35 AM,64.4,62.6,94,29.81,10.0,South,3.5,-,N/A,,Overcast,170,2013-08-31 10:35:00
6:55 AM,64.4,62.6,94,29.81,10.0,Calm,Calm,-,N/A,,Overcast,0,2013-08-31 10:55:00
7:15 AM,64.4,62.6,94,29.81,10.0,Calm,Calm,-,N/A,,Mostly Cloudy,0,2013-08-31 11:15:00
7:35 AM,66.2,62.6,88,29.82,10.0,Calm,Calm,-,N/A,,Scattered Clouds,0,2013-08-31 11:35:00
7:55 AM,66.2,64.4,94,29.81,10.0,Calm,Calm,-,N/A,,Mostly Cloudy,0,2013-08-31 11:55:00
8:15 AM,66.2,62.6,88,29.82,10.0,East,3.5,-,N/A,,Overcast,90,2013-08-31 12:15:00
8:35 AM,68.0,64.4,88,29.82,10.0,East,4.6,-,N/A,,Overcast,90,2013-08-31 12:35:00
8:55 AM,68.0,64.4,88,29.82,10.0,ENE,4.6,-,N/A,,Overcast,60,2013-08-31 12:55:00
9:15 AM,69.8,64.4,83,29.83,10.0,Calm,Calm,-,N/A,,Mostly Cloudy,0,2013-08-31 13:15:00
9:35 AM,69.8,64.4,83,29.83,10.0,Calm,Calm,-,N/A,,Mostly Cloudy,0,2013-08-31 13:35:00
9:55 AM,71.6,64.4,78,29.84,10.0,Calm,Calm,-,N/A,,Overcast,0,2013-08-31 13:55:00
10:15 AM,71.6,64.4,78,29.84,10.0,Calm,Calm,-,N/A,,Overcast,0,2013-08-31 14:15:00
10:35 AM,73.4,66.2,78,29.84,10.0,Calm,Calm,-,N/A,,Mostly Cloudy,0,2013-08-31 14:35:00
10:55 AM,73.4,64.4,73,29.83,10.0,Calm,Calm,-,N/A,,Clear,0,2013-08-31 14:55:00
11:15 AM,75.2,66.2,73,29.83,10.0,Calm,Calm,-,N/A,,Scattered Clouds,0,2013-08-31 15:15:00
11:35 AM,77.0,66.2,69,29.82,10.0,West,3.5,-,N/A,,Mostly Cloudy,260,2013-08-31 15:35:00
11:55 AM,77.0,66.2,69,29.82,10.0,Calm,Calm,-,N/A,,Partly Cloudy,0,2013-08-31 15:55:00
12:15 PM,78.8,66.2,65,29.81,8.0,South,4.6,-,N/A,,Clear,180,2013-08-31 16:15:00
12:35 PM,77.0,64.4,65,29.82,10.0,Calm,Calm,-,N/A,,Unknown,0,2013-08-31 16:35:00
12:55 PM,78.8,66.2,65,29.81,10.0,SSW,3.5,-,N/A,,Unknown,200,2013-08-31 16:55:00
1:15 PM,80.6,64.4,58,29.80,10.0,West,4.6,-,N/A,,Unknown,260,2013-08-31 17:15:00
1:35 PM,80.6,64.4,58,29.81,10.0,Calm,Calm,-,N/A,,Unknown,0,2013-08-31 17:35:00
1:55 PM,-9999,-9999,N/A,29.80,10.0,Calm,Calm,-,N/A,,Unknown,0,2013-08-31 17:55:00
2:15 PM,-9999,-9999,N/A,29.80,10.0,SSW,5.8,-,N/A,,Unknown,200,2013-08-31 18:15:00
2:35 PM,-9999,-9999,N/A,29.79,10.0,SW,4.6,-,N/A,,Unknown,220,2013-08-31 18:35:00
2:55 PM,-9999,-9999,N/A,29.78,10.0,South,4.6,-,N/A,,Unknown,180,2013-08-31 18:55:00
3:15 PM,-9999,-9999,N/A,29.78,10.0,SSW,4.6,-,N/A,,Unknown,210,2013-08-31 19:15:00
3:35 PM,-9999,-9999,N/A,29.79,10.0,South,3.5,-,N/A,,Unknown,180,2013-08-31 19:35:00
3:55 PM,-9999,-9999,N/A,29.79,10.0,South,5.8,-,N/A,,Unknown,190,2013-08-31 19:55:00
4:15 PM,-9999,-9999,N/A,29.80,9.0,West,8.1,-,0.01,,Unknown,260,2013-08-31 20:15:00
4:35 PM,71.6,68.0,88,29.80,4.0,ESE,3.5,-,0.04,,Overcast,120,2013-08-31 20:35:00
4:55 PM,71.6,69.8,94,29.79,10.0,East,3.5,-,0.05,,Overcast,90,2013-08-31 20:55:00
5:15 PM,73.4,69.8,88,29.79,10.0,ESE,3.5,-,N/A,,Overcast,110,2013-08-31 21:15:00
5:35 PM,73.4,69.8,88,29.79,10.0,SSE,4.6,-,N/A,,Overcast,150,2013-08-31 21:35:00
5:55 PM,73.4,69.8,88,29.79,10.0,Calm,Calm,-,N/A,,Overcast,0,2013-08-31 21:55:00
6:15 PM,73.4,69.8,88,29.79,10.0,Calm,Calm,-,N/A,,Overcast,0,2013-08-31 22:15:00
6:35 PM,73.4,69.8,88,29.79,9.0,SE,3.5,-,N/A,,Overcast,140,2013-08-31 22:35:00
6:55 PM,71.6,69.8,94,29.79,8.0,Calm,Calm,-,N/A,,Overcast,0,2013-08-31 22:55:00
7:15 PM,71.6,69.8,94,29.79,6.0,Calm,Calm,-,N/A,,Overcast,0,2013-08-31 23:15:00
7:35 PM,71.6,69.8,94,29.79,5.0,Calm,Calm,-,N/A,,Overcast,0,2013-08-31 23:35:00
7:55 PM,71.6,69.8,94,29.79,7.0,ESE,3.5,-,N/A,,Overcast,120,2013-08-31 23:55:00
8:15 PM,71.6,69.8,94,29.81,5.0,SW,3.5,-,N/A,,Overcast,220,2013-09-01 00:15:00
8:35 PM,71.6,69.8,94,29.80,4.0,South,3.5,-,0.03,,Mostly Cloudy,170,2013-09-01 00:35:00
8:55 PM,71.6,69.8,94,29.80,3.0,Calm,Calm,-,0.06,,Mostly Cloudy,0,2013-09-01 00:55:00
9:15 PM,71.6,69.8,94,29.79,3.0,Calm,Calm,-,N/A,,Mostly Cloudy,0,2013-09-01 01:15:00
9:35 PM,71.6,69.8,94,29.80,3.0,Calm,Calm,-,N/A,,Overcast,0,2013-09-01 01:35:00
9:55 PM,71.6,69.8,94,29.80,3.0,Calm,Calm,-,N/A,,Overcast,0,2013-09-01 01:55:00
10:15 PM,71.6,69.8,94,29.79,3.0,Calm,Calm,-,N/A,,Overcast,0,2013-09-01 02:15:00
10:35 PM,71.6,69.8,94,29.79,4.0,SE,4.6,-,N/A,,Overcast,130,2013-09-01 02:35:00
10:55 PM,71.6,69.8,94,29.79,3.0,Calm,Calm,-,N/A,,Overcast,0,2013-09-01 02:55:00
11:15 PM,69.8,69.8,100,29.80,3.0,South,3.5,-,N/A,,Overcast,170,2013-09-01 03:15:00
11:35 PM,69.8,69.8,100,29.80,3.0,Calm,Calm,-,N/A,,Overcast,0,2013-09-01 03:35:00
11:55 PM,-9999,-9999,N/A,29.78,2.5,Calm,Calm,-,N/A,,Overcast,0,2013-09-01 03:55:00